This is the latest recevied weather packets stored in our database for station/object OH2HCY-3. If no packets are shown the sender has not sent any weather packets the latest 1 day(s).
| Time | Temp. | Humidity | Pressure | Rain* | Wind** | Luminosity | Snow |
|---|---|---|---|---|---|---|---|
| 1778038007 | 0° C | 85% | 1011.5 hPa | - | 0.89 m/s, 127° | - | - |
| 1778036834 | -0.56° C | 86% | 1011.3 hPa | - | 0.89 m/s, 134° | - | - |
| 1778034596 | -1.11° C | 85% | 1011 hPa | - | 1.34 m/s, 179° | - | - |
| 1778032475 | - | - | - | - | 1.34 m/s, 139° | - | - |
| 1778032471 | -1.11° C | 84% | 1010.7 hPa | - | 1.34 m/s, 139° | - | - |
| 1778031427 | -1.11° C | 84% | 1010.5 hPa | - | 0.89 m/s, 165° | - | - |
| 1778030388 | -1.11° C | 84% | 1010.4 hPa | - | 0.89 m/s, 140° | - | - |
| 1778028306 | -1.11° C | 82% | 1010.1 hPa | - | 1.34 m/s, 153° | - | - |
| 1778027266 | -0.56° C | 82% | 1010 hPa | - | 1.34 m/s, 101° | - | - |
| 1778026204 | -0.56° C | 80% | 1009.9 hPa | - | 2.68 m/s, 139° | - | - |
| 1778026201 | -0.56° C | 80% | 1009.9 hPa | - | 1.34 m/s, 139° | - | - |
| 1778025066 | 0° C | 78% | 1009.7 hPa | - | 0.89 m/s, 195° | - | - |
| 1778022989 | 0.56° C | 75% | 1009.7 hPa | - | 0.89 m/s, 170° | - | - |
| 1778022986 | 0.56° C | 75% | 1009.7 hPa | - | 0.89 m/s, 170° | - | - |
| 1778021871 | 1.11° C | 72% | 1009.5 hPa | - | 0.89 m/s, 106° | - | - |
| 1778020811 | 1.67° C | 71% | 1009.4 hPa | - | 1.34 m/s, 171° | - | - |
| 1778019756 | 2.78° C | 68% | 1009.3 hPa | - | 1.34 m/s, 145° | - | - |
| 1778018741 | 2.78° C | 67% | 1009.3 hPa | - | 1.34 m/s, 168° | - | - |
| 1778016456 | 3.33° C | 64% | 1009.2 hPa | - | 1.79 m/s, 169° | - | - |
| 1778015311 | 3.33° C | 63% | 1009.1 hPa | - | 1.79 m/s, 179° | - | - |
| 1778014291 | 3.33° C | 62% | 1008.9 hPa | - | 1.79 m/s, 174° | - | - |
| 1778013201 | 3.89° C | 59% | 1008.7 hPa | - | 1.34 m/s, 168° | - | - |
| 1778012186 | 3.89° C | 57% | 1008.6 hPa | - | 1.79 m/s, 166° | - | - |
| 1778011082 | 4.44° C | 51% | - | - | 1.34 m/s, 149° | - | - |
| 1778011081 | 4.44° C | 55% | 1008.3 hPa | - | 1.34 m/s, 149° | - | - |
* Rain since midnight (hover to see other rain measurements)
** Current wind speed in m/s (hover to see current wind gust speed)